Flag for Germany Past Weather in Lutherstadt Eisleben, Saxony-Anhalt, Germany — Yesterday and Last 2 Weeks

Now
84 °F

Sunny.


Feels Like: 82 °F
Forecast: 59 / 90 °F
Wind: 13 mph from East

Location: Leipzig-Schkeuditz

Current Time: Aug 25, 2016 at 1:49:35 PM

Latest Report: Aug 25, 2016 at 1:20 PM


Visibility: 10 mi

Pressure: 30.15 "Hg

Humidity: 31%

Dew Point: 50 °F

Location of Lutherstadt EislebenLocation

Past Weather in Lutherstadt Eisleben — Graph

°F

Lutherstadt Eisleben Temperature Yesterday

Maximum temperature yesterday: 84 °F (at 4:20 PM)
Minimum temperature yesterday: 59 °F (at 6:20 AM)
Average temperature yesterday: 72 °F

High & Low Weather Summary for the Past Weeks

 TemperatureHumidityPressure
High84 °F (Aug 24, 4:20 PM)100% (Aug 12, 8:20 PM)30.33 "Hg (Aug 12, 8:20 PM)
Low45 °F (Aug 11, 3:20 AM)33% (Aug 18, 4:20 PM)29.80 "Hg (Aug 18, 3:50 PM)
Average64 °F70%30.11 "Hg
* Reported Aug 10 12:20 PM — Aug 25 12:20 PM, Lutherstadt Eisleben, Weather by CustomWeather, © 2016

Note: Actual official high and low records may vary slightly from our data, if they occured in-between our weather recording intervals... More about our weather records

Advertising

Lutherstadt Eisleben Weather History for the Previous 24 Hours

Scroll right to see more
 ConditionsComfort  
Time TempWeatherWind HumidityBarometerVisibility
12:20 PM
Thu, Aug 25
82 °FPassing clouds.13 mph35%30.15 "HgN/A
11:50 AM82 °FPassing clouds.9 mph37%30.15 "HgN/A
11:20 AM81 °FPassing clouds.7 mph42%30.15 "HgN/A
10:50 AM79 °FPassing clouds.5 mph45%30.18 "HgN/A
10:20 AM77 °FPassing clouds.6 mph51%30.18 "HgN/A
9:50 AM75 °FPassing clouds.5 mph54%30.18 "HgN/A
9:20 AM73 °FSunny.6 mph57%30.18 "Hg10 mi
8:50 AM70 °FPassing clouds.6 mph69%30.18 "HgN/A
8:20 AM66 °FSunny.6 mph73%30.18 "Hg10 mi
7:50 AM64 °FSunny.7 mph83%30.18 "Hg10 mi
7:20 AM61 °FSunny.6 mph88%30.18 "Hg10 mi
6:50 AM57 °FClear.7 mph94%30.18 "Hg10 mi
6:20 AM57 °FClear.7 mph94%30.18 "Hg10 mi
5:50 AM59 °FClear.7 mph94%30.18 "Hg10 mi
5:20 AM57 °FClear.9 mph94%30.18 "Hg10 mi
4:50 AM59 °FClear.10 mph88%30.18 "Hg10 mi
4:20 AM59 °FClear.9 mph88%30.18 "Hg10 mi
3:50 AM61 °FClear.8 mph88%30.18 "Hg10 mi
3:20 AM61 °FClear.9 mph88%30.21 "Hg10 mi
2:50 AM61 °FClear.9 mph88%30.18 "Hg10 mi
2:20 AM63 °FClear.9 mph83%30.21 "Hg10 mi
1:50 AM63 °FClear.9 mph83%30.21 "Hg10 mi
1:20 AM64 °FClear.8 mph78%30.21 "Hg10 mi
12:50 AM64 °FClear.9 mph78%30.21 "Hg10 mi
12:20 AM66 °FClear.10 mph73%30.21 "Hg10 mi
11:50 PM
Wed, Aug 24
68 °FClear.10 mph69%30.21 "Hg10 mi
11:20 PM68 °FClear.12 mph69%30.21 "Hg10 mi
10:50 PM68 °FClear.13 mph69%30.21 "Hg10 mi
10:20 PM68 °FClear.10 mph69%30.21 "Hg10 mi
9:50 PM68 °FClear.10 mph69%30.21 "Hg10 mi
9:20 PM70 °FClear.9 mph60%30.21 "Hg10 mi
8:50 PM72 °FSunny.9 mph61%30.21 "Hg10 mi
8:20 PM73 °FSunny.9 mph53%30.21 "Hg10 mi
7:50 PM77 °FSunny.9 mph51%30.21 "Hg10 mi
7:20 PM79 °FSunny.10 mph45%30.21 "Hg10 mi
6:50 PM82 °FSunny.10 mph40%30.21 "Hg10 mi
6:20 PM82 °FSunny.9 mph40%30.21 "Hg10 mi
5:50 PM82 °FPassing clouds.9 mph40%30.21 "HgN/A
5:20 PM84 °FPassing clouds.9 mph40%30.24 "HgN/A
4:50 PM84 °FPassing clouds.7 mph37%30.24 "HgN/A
4:20 PM84 °FSunny.7 mph35%30.24 "Hg10 mi
3:50 PM82 °FPassing clouds.9 mph42%30.24 "HgN/A
3:20 PM82 °FPassing clouds.7 mph42%30.24 "HgN/A
2:50 PM82 °FPassing clouds.7 mph42%30.24 "HgN/A
2:20 PM82 °FPassing clouds.7 mph42%30.27 "HgN/A
1:50 PM81 °FPassing clouds.6 mph48%30.27 "HgN/A
1:20 PM81 °FPassing clouds.7 mph48%30.27 "HgN/A
Weather by CustomWeather, © 2016

See weather overviewHow to use our weather pages